Location: Lawrence Hall of Science
(37.8785°N, 122.2415°W)
Time: 11:49:22
(UTC-07:00)

Cosmos 1461 - Visible Passes

Search period start: 25 May 2016 00:00
Search period end: 04 June 2016 00:00
Orbit: 511 x 666 km, 65.0° (Epoch: 25 May)

Date Brightness Start Highest point End Pass type
(mag) Time Alt. Az. Time Alt. Az. Time Alt. Az.
25 May 3.5 21:41:29 10° NNW 21:45:37 44° NE 21:47:38 25° ESE visible
25 May 5.2 23:22:03 10° WNW 23:24:08 14° WSW 23:24:08 14° WSW visible
26 May 2.8 21:48:54 10° NNW 21:53:11 81° ENE 21:55:10 30° SE visible
27 May 3.3 21:56:30 10° NW 22:00:39 54° WSW 22:02:45 25° S visible
28 May 4.4 22:04:22 10° NW 22:08:02 29° WSW 22:10:23 17° SSW visible
29 May 5.3 22:12:43 10° WNW 22:15:19 16° WSW 22:17:52 10° SSW visible
01 Jun 4.4 20:55:12 10° NW 20:58:59 32° WSW 21:02:35 10° S visible
02 Jun 5.3 21:03:25 10° WNW 21:06:17 18° WSW 21:09:03 10° SSW visible
